Content
SEND FEEDBACK

Daily
Averages
Monthly
Summary
United States of America

BARRINGTON, ILLINOIS


Home > North America > United States > Illinois
Elevation: 810 feet     Latitude: 42 10N     Longitude: 088 09W

WEATHER
 
SELECT A DAY
Number of Records: 199,700;   Date Range: 1/1/95 - 10/23/14
 
SHARE

PRINT THIS DATA

[ ← Previous Day ]
WEATHER ALMANAC - AUGUST 27, 2014
[ Next Day → ]
[ °C ]   °F
Weather ElementAverageHighLow
Temperature72.6 °F80.6 °F (3:51 pm)68 °F (1:51 am)
Dewpoint60.4 °F63 °F (10:51 am)57 °F (2:51 am)
Humidity66.4 %81 % (12:51 am)45 % (11:51 am)
Barometer30.12 in30.14 in (7:51 am)30.10 in (12:51 am)
Wind Speed7 mph12.7 mph (9:51 am)
Weather ElementAverage
Visibility10 mi
Wind DirectionE (85.8 °)

Weather ElementTotal
Precipitation---
Cooling Degree Days9.3 (Base 65)
Growing Degree Days24.3 (Base 50)
Averaged from 24 records on August 27, 2014
WEATHER CONDITIONS BREAKOUT
WIND DIRECTION BREAKOUT
WEATHER BY HOUR - AUGUST 27, 2014
[ °C ]   °F
Local TimeTemperatureDewpointHumidityBarometerVisibilityWind DirectionWind SpeedGust SpeedPrecipitationEventsConditions
12:51 AM71.6 °F62.6 °F73 %30.10 in10.0 miNE (50°)6.9 mphMostly Cloudy
1:51 AM71.1 °F63.0 °F75 %30.10 in10.0 miNE (50°)4.6 mphMostly Cloudy
2:51 AM71.1 °F63.0 °F75 %30.10 in10.0 miNorth (10°)3.5 mphMostly Cloudy
3:51 AM69.1 °F63.0 °F81 %30.10 in10.0 miNorth (350°)5.8 mphMostly Cloudy
4:51 AM69.1 °F62.1 °F78 %30.11 in10.0 miNorth (350°)5.8 mphMostly Cloudy
5:51 AM68.0 °F62.1 °F81 %30.11 in10.0 miNorth (350°)4.6 mphMostly Cloudy
6:51 AM68.0 °F61.0 °F78 %30.13 in10.0 miNorth (10°)5.8 mphMostly Cloudy
7:51 AM71.6 °F60.8 °F69 %30.14 in10.0 miNNE (30°)5.8 mphPartly Cloudy
8:51 AM73.9 °F60.1 °F62 %30.13 in10.0 miENE (60°)4.6 mphScattered Clouds
9:51 AM75.0 °F59.0 °F57 %30.13 in10.0 miNE (50°)6.9 mphMostly Cloudy
10:51 AM75.9 °F61.0 °F60 %30.14 in10.0 miSE (130°)6.9 mphMostly Cloudy
11:51 AM78.1 °F57.0 °F48 %30.13 in10.0 miCalmMostly Cloudy
12:51 PM80.1 °F57.0 °F45 %30.14 in10.0 miVariable5.8 mphMostly Cloudy
1:51 PM80.6 °F60.8 °F51 %30.13 in10.0 miENE (70°)9.2 mphMostly Cloudy
2:51 PM78.1 °F62.1 °F58 %30.12 in10.0 miENE (60°)9.2 mphMostly Cloudy
3:51 PM75.9 °F61.0 °F60 %30.12 in10.0 miNNE (30°)12.7 mphOvercast
4:51 PM75.0 °F61.0 °F62 %30.12 in10.0 miNE (50°)11.5 mphOvercast
5:51 PM73.0 °F60.1 °F64 %30.11 in10.0 miNE (50°)9.2 mphOvercast
6:51 PM71.1 °F59.0 °F66 %30.10 in10.0 miNE (50°)10.4 mphOvercast
7:51 PM70.0 °F59.0 °F68 %30.10 in10.0 miENE (60°)9.2 mphMostly Cloudy
8:51 PM70.0 °F59.0 °F68 %30.11 in10.0 miENE (60°)8.1 mphMostly Cloudy
9:51 PM69.8 °F59.0 °F68 %30.13 in10.0 miENE (60°)6.9 mphScattered Clouds
10:51 PM68.0 °F59.0 °F73 %30.12 in10.0 miENE (70°)8.1 mphPartly Cloudy
11:51 PM68.0 °F59.0 °F73 %30.12 in10.0 miENE (60°)6.9 mphScattered Clouds
Hourly data recorded from KORD, located miles away from Barrington, Illinois







STORIES FROM OUR PARTNERS